Location: Songkhla
(7.2000°N, 100.6000°E)
Time: 17:09:28
(UTC+07:00)

LAPAN A2 - All Passes

Search period start: 29 September 2022 00:00
Search period end: 09 October 2022 00:00
Orbit: 630 x 648 km, 6.0° (Epoch: 28 September)

Date Brightness Start Highest point End Pass type
(mag) Time Alt. Az. Time Alt. Az. Time Alt. Az.
29 Sep - 00:56:59 10° SW 01:00:22 19° S 01:03:46 10° SE night (unlit)
29 Sep - 02:41:59 10° SW 02:44:56 16° S 02:47:53 10° SE night (unlit)
29 Sep - 04:26:38 10° SW 04:29:33 16° S 04:32:28 10° SE visible
29 Sep - 06:10:50 10° SW 06:14:09 18° S 06:17:28 10° SE daylight
29 Sep - 07:54:48 10° SW 07:58:40 24° S 08:02:34 10° ESE daylight
29 Sep - 09:38:47 10° WSW 09:43:08 34° S 09:47:29 10° ESE daylight
29 Sep - 11:22:53 10° WSW 11:27:32 49° S 11:32:11 10° E daylight
29 Sep - 13:07:10 10° WSW 13:11:56 66° S 13:16:41 10° E daylight
29 Sep - 14:51:33 10° W 14:56:20 76° S 15:01:06 10° E daylight
29 Sep - 16:35:58 10° W 16:40:44 75° S 16:45:28 10° E daylight
29 Sep - 18:20:26 10° W 18:25:07 62° S 18:29:47 10° ESE visible
29 Sep - 20:05:00 10° WSW 20:09:29 44° S 20:13:59 10° ESE visible
29 Sep - 21:49:43 10° WSW 21:53:52 31° S 21:58:01 10° SE night (unlit)
29 Sep - 23:34:40 10° WSW 23:38:19 22° S 23:41:58 10° SE night (unlit)
30 Sep - 01:19:44 10° SW 01:22:51 17° S 01:25:58 10° SE night (unlit)
30 Sep - 03:04:36 10° SW 03:07:26 16° S 03:10:17 10° SE visible
30 Sep - 04:48:59 10° SW 04:52:03 17° S 04:55:07 10° SE visible
30 Sep - 06:33:01 10° SW 06:36:37 21° S 06:40:12 10° SE daylight
30 Sep - 08:16:57 10° SW 08:21:05 29° S 08:25:14 10° ESE daylight
30 Sep - 10:01:00 10° WSW 10:05:31 41° S 10:10:02 10° ESE daylight
30 Sep - 11:45:11 10° WSW 11:49:55 58° S 11:54:38 10° E daylight
30 Sep - 13:29:31 10° W 13:34:19 73° S 13:39:05 10° E daylight
30 Sep - 15:13:56 10° W 15:18:43 77° S 15:23:29 10° E daylight
30 Sep - 16:58:22 10° W 17:03:07 69° S 17:07:50 10° E daylight
30 Sep - 18:42:52 10° W 18:47:30 53° S 18:52:06 10° ESE visible
30 Sep - 20:27:31 10° WSW 20:31:52 37° S 20:36:13 10° ESE visible
30 Sep - 22:12:22 10° WSW 22:16:17 26° S 22:20:12 10° SE night (unlit)
30 Sep - 23:57:25 10° SW 00:00:46 19° S 00:04:07 10° SE night (unlit)
01 Oct - 01:42:25 10° SW 01:45:20 16° S 01:48:15 10° SE night (unlit)
01 Oct - 03:27:03 10° SW 03:29:56 16° S 03:32:49 10° SE visible
01 Oct - 05:11:14 10° SW 05:14:31 18° S 05:17:50 10° SE visible
01 Oct - 06:55:11 10° SW 06:59:02 24° S 07:02:56 10° ESE daylight
01 Oct - 08:39:09 10° WSW 08:43:29 34° S 08:47:51 10° ESE daylight
01 Oct - 10:23:15 10° WSW 10:27:54 49° S 10:32:32 10° E daylight
01 Oct - 12:07:31 10° WSW 12:12:17 66° S 12:17:03 10° E daylight
01 Oct - 13:51:53 10° W 13:56:41 77° S 14:01:29 10° E daylight
01 Oct - 15:36:20 10° W 15:41:06 75° S 15:45:51 10° E daylight
01 Oct - 17:20:47 10° W 17:25:30 61° S 17:30:11 10° ESE daylight
01 Oct - 19:05:21 10° WSW 19:09:52 44° S 19:14:22 10° ESE visible
01 Oct - 20:50:06 10° WSW 20:54:16 30° S 20:58:24 10° SE visible
01 Oct - 22:35:04 10° SW 22:38:43 22° S 22:42:20 10° SE night (unlit)
02 Oct - 00:20:09 10° SW 00:23:14 17° S 00:26:20 10° SE night (unlit)
02 Oct - 02:05:01 10° SW 02:07:50 16° S 02:10:39 10° SE night (unlit)
02 Oct - 03:49:23 10° SW 03:52:26 17° S 03:55:28 10° SE visible
02 Oct - 05:33:24 10° SW 05:36:59 21° S 05:40:34 10° SE visible
02 Oct - 07:17:20 10° SW 07:21:27 29° S 07:25:35 10° ESE daylight
02 Oct - 09:01:22 10° WSW 09:05:52 41° S 09:10:24 10° ESE daylight
02 Oct - 10:45:33 10° WSW 10:50:16 58° S 10:55:00 10° E daylight
02 Oct - 12:29:52 10° W 12:34:40 73° S 12:39:27 10° E daylight
02 Oct - 14:14:17 10° W 14:19:05 77° S 14:23:52 10° E daylight
02 Oct - 15:58:43 10° W 16:03:29 69° S 16:08:14 10° E daylight
02 Oct - 17:43:13 10° W 17:47:52 52° S 17:52:29 10° ESE daylight
02 Oct - 19:27:53 10° WSW 19:32:15 36° S 19:36:37 10° ESE visible
02 Oct - 21:12:45 10° WSW 21:16:40 25° S 21:20:34 10° SE visible
02 Oct - 22:57:49 10° SW 23:01:10 19° S 23:04:30 10° SE night (unlit)
03 Oct - 00:42:50 10° SW 00:45:44 16° S 00:48:37 10° SE night (unlit)
03 Oct - 02:27:28 10° SW 02:30:20 16° S 02:33:12 10° SE night (unlit)
03 Oct - 04:11:37 10° SW 04:14:54 19° S 04:18:12 10° SE visible
03 Oct - 05:55:33 10° SW 05:59:25 24° S 06:03:17 10° ESE daylight
03 Oct - 07:39:31 10° WSW 07:43:51 35° S 07:48:12 10° ESE daylight
03 Oct - 09:23:37 10° WSW 09:28:14 50° S 09:32:53 10° E daylight
03 Oct - 11:07:52 10° WSW 11:12:38 67° S 11:17:25 10° E daylight
03 Oct - 12:52:14 10° W 12:57:02 77° S 13:01:51 10° E daylight
03 Oct - 14:36:39 10° W 14:41:27 74° S 14:46:14 10° E daylight
03 Oct - 16:21:07 10° W 16:25:51 61° S 16:30:33 10° ESE daylight
03 Oct - 18:05:42 10° WSW 18:10:15 43° S 18:14:46 10° ESE daylight
03 Oct - 19:50:28 10° WSW 19:54:38 30° S 19:58:48 10° SE visible
03 Oct - 21:35:28 10° SW 21:39:06 22° S 21:42:43 10° SE night (unlit)
03 Oct - 23:20:33 10° SW 23:23:37 17° S 23:26:43 10° SE night (unlit)
04 Oct - 01:05:25 10° SW 01:08:13 16° S 01:11:02 10° SE night (unlit)
04 Oct - 02:49:47 10° SW 02:52:49 17° S 02:55:51 10° SE night (unlit)
04 Oct - 04:33:47 10° SW 04:37:21 21° S 04:40:56 10° SE visible
04 Oct - 06:17:43 10° SW 06:21:49 29° S 06:25:57 10° ESE daylight
04 Oct - 08:01:43 10° WSW 08:06:14 42° S 08:10:45 10° ESE daylight
04 Oct - 09:45:55 10° WSW 09:50:37 59° S 09:55:21 10° E daylight
04 Oct - 11:30:14 10° W 11:35:00 73° S 11:39:49 10° E daylight
04 Oct - 13:14:37 10° W 13:19:26 77° S 13:24:14 10° E daylight
04 Oct - 14:59:04 10° W 15:03:50 68° S 15:08:36 10° E daylight
04 Oct - 16:43:34 10° W 16:48:14 52° S 16:52:52 10° ESE daylight
04 Oct - 18:28:14 10° WSW 18:32:38 36° S 18:36:59 10° ESE visible
04 Oct - 20:13:08 10° WSW 20:17:03 25° S 20:20:57 10° SE visible
04 Oct - 21:58:12 10° SW 22:01:33 19° S 22:04:53 10° SE night (unlit)
04 Oct - 23:43:13 10° SW 23:46:07 16° S 23:49:00 10° SE night (unlit)
05 Oct - 01:27:51 10° SW 01:30:43 16° S 01:33:35 10° SE night (unlit)
05 Oct - 03:12:00 10° SW 03:15:17 19° S 03:18:34 10° SE visible
05 Oct - 04:55:56 10° SW 04:59:47 25° S 05:03:39 10° ESE visible
05 Oct - 06:39:54 10° WSW 06:44:13 35° S 06:48:33 10° ESE daylight
05 Oct - 08:23:59 10° WSW 08:28:36 50° S 08:33:14 10° E daylight
05 Oct - 10:08:15 10° W 10:12:59 67° S 10:17:45 10° E daylight
05 Oct - 11:52:36 10° W 11:57:23 77° S 12:02:12 10° E daylight
05 Oct - 13:37:00 10° W 13:41:48 74° S 13:46:36 10° E daylight
05 Oct - 15:21:29 10° W 15:26:13 60° S 15:30:56 10° ESE daylight
05 Oct - 17:06:03 10° WSW 17:10:36 43° S 17:15:08 10° ESE daylight
05 Oct - 18:50:50 10° WSW 18:55:01 30° S 18:59:10 10° SE visible
05 Oct - 20:35:50 10° SW 20:39:28 22° S 20:43:06 10° SE visible
05 Oct - 22:20:56 10° SW 22:24:01 17° S 22:27:05 10° SE night (unlit)
06 Oct - 00:05:48 10° SW 00:08:36 16° S 00:11:25 10° SE night (unlit)
06 Oct - 01:50:10 10° SW 01:53:12 17° S 01:56:15 10° SE night (unlit)
06 Oct - 03:34:10 10° SW 03:37:45 21° S 03:41:19 10° SE visible
06 Oct - 05:18:06 10° SW 05:22:12 29° S 05:26:19 10° ESE visible
06 Oct - 07:02:07 10° WSW 07:06:36 42° S 07:11:05 10° ESE daylight
06 Oct - 08:46:18 10° WSW 08:50:58 59° S 08:55:40 10° E daylight
06 Oct - 10:30:36 10° W 10:35:22 74° S 10:40:09 10° E daylight
06 Oct - 12:15:00 10° W 12:19:46 77° S 12:24:35 10° E daylight
06 Oct - 13:59:25 10° W 14:04:11 68° S 14:08:57 10° E daylight
06 Oct - 15:43:55 10° W 15:48:35 51° S 15:53:15 10° ESE daylight
06 Oct - 17:28:35 10° WSW 17:32:59 36° S 17:37:21 10° ESE daylight
06 Oct - 19:13:29 10° WSW 19:17:25 25° S 19:21:20 10° SE visible
06 Oct - 20:58:34 10° SW 21:01:55 19° S 21:05:16 10° SE visible
06 Oct - 22:43:36 10° SW 22:46:30 16° S 22:49:24 10° SE night (unlit)
07 Oct - 00:28:13 10° SW 00:31:06 16° S 00:33:59 10° SE night (unlit)
07 Oct - 02:12:23 10° SW 02:15:41 19° S 02:18:58 10° SE night (unlit)
07 Oct - 03:56:19 10° SW 04:00:10 25° S 04:04:02 10° ESE visible
07 Oct - 05:40:17 10° WSW 05:44:35 35° S 05:48:55 10° ESE visible
07 Oct - 07:24:23 10° WSW 07:28:58 51° S 07:33:35 10° E daylight
07 Oct - 09:08:37 10° W 09:13:20 68° S 09:18:06 10° E daylight
07 Oct - 10:52:58 10° W 10:57:45 77° S 11:02:33 10° E daylight
07 Oct - 12:37:22 10° W 12:42:09 74° S 12:46:57 10° E daylight
07 Oct - 14:21:49 10° W 14:26:34 60° S 14:31:17 10° ESE daylight
07 Oct - 16:06:24 10° WSW 16:10:57 43° S 16:15:30 10° ESE daylight
07 Oct - 17:51:11 10° WSW 17:55:22 30° S 17:59:33 10° SE daylight
07 Oct - 19:36:12 10° SW 19:39:51 22° S 19:43:29 10° SE visible
07 Oct - 21:21:17 10° SW 21:24:24 17° S 21:27:29 10° SE night (unlit)
07 Oct - 23:06:10 10° SW 23:08:59 16° S 23:11:50 10° SE night (unlit)
08 Oct - 00:50:32 10° SW 00:53:35 17° S 00:56:40 10° SE night (unlit)
08 Oct - 02:34:32 10° SW 02:38:07 21° S 02:41:43 10° SE night (unlit)
08 Oct - 04:18:28 10° SW 04:22:34 30° S 04:26:41 10° ESE visible
08 Oct - 06:02:30 10° WSW 06:06:58 43° S 06:11:27 10° ESE daylight
08 Oct - 07:46:40 10° WSW 07:51:20 60° S 07:56:02 10° E daylight
08 Oct - 09:30:59 10° W 09:35:43 74° S 09:40:29 10° E daylight
08 Oct - 11:15:21 10° W 11:20:07 77° S 11:24:55 10° E daylight
08 Oct - 12:59:46 10° W 13:04:31 67° S 13:09:18 10° E daylight
08 Oct - 14:44:16 10° W 14:48:55 51° S 14:53:35 10° ESE daylight
08 Oct - 16:28:56 10° WSW 16:33:20 35° S 16:37:43 10° ESE daylight
08 Oct - 18:13:51 10° WSW 18:17:47 25° S 18:21:42 10° SE daylight
08 Oct - 19:58:55 10° SW 20:02:17 19° S 20:05:39 10° SE visible
08 Oct - 21:43:57 10° SW 21:46:53 16° S 21:49:48 10° SE night (unlit)
08 Oct - 23:28:35 10° SW 23:31:29 16° S 23:34:23 10° SE night (unlit)
